| time (UTC) | temp C | wind direction | speed KPH | gust KPH | rain 1hr cm | rain 24hr cm | rain mn cm | humidity % | barometer mb |
| 20260504000311 | 12 | 22 | 4.8 | 8.0 | 0.00 | 0.00 | 0.00 | 61 | 1011.3 |
| 20260503234311 | 13 | 45 | 6.4 | 8.0 | 0.00 | 0.00 | 0.00 | 59 | 1011.6 |
| 20260503233311 | 13 | 45 | 6.4 | 9.7 | 0.00 | 0.00 | 0.00 | 58 | 1011.6 |
| 20260503232311 | 13 | 45 | 6.4 | 8.0 | 0.00 | 0.00 | 0.00 | 56 | 1011.4 |
| 20260503231311 | 13 | 45 | 4.8 | 9.7 | 0.00 | 0.00 | 0.00 | 55 | 1011.6 |
| 20260503230311 | 14 | 22 | 6.4 | 8.0 | 0.00 | 0.00 | 0.00 | 55 | 1011.6 |
| 20260503225311 | 14 | 45 | 6.4 | 9.7 | 0.00 | 0.00 | 0.00 | 51 | 1011.5 |
| 20260503224310 | 15 | 45 | 6.4 | 8.0 | 0.00 | 0.00 | 0.00 | 52 | 1011.7 |
| 20260503223310 | 15 | 45 | 11.3 | 16.1 | 0.00 | 0.00 | 0.00 | 50 | 1011.5 |
| 20260503222310 | 15 | 45 | 6.4 | 11.3 | 0.00 | 0.00 | 0.00 | 49 | 1011.5 |
| 20260503221310 | 15 | 45 | 6.4 | 11.3 | 0.00 | 0.00 | 0.00 | 49 | 1011.6 |
| 20260503220310 | 16 | 45 | 6.4 | 11.3 | 0.00 | 0.00 | 0.00 | 47 | 1011.6 |
| 20260503215309 | 16 | 45 | 6.4 | 17.7 | 0.00 | 0.00 | 0.00 | 47 | 1011.3 |
| 20260503214310 | 16 | 22 | 8.0 | 9.7 | 0.00 | 0.00 | 0.00 | 48 | 1011.5 |
| 20260503213309 | 16 | 45 | 8.0 | 12.9 | 0.00 | 0.00 | 0.00 | 47 | 1011.5 |
| 20260503212309 | 16 | 45 | 3.2 | 6.4 | 0.00 | 0.00 | 0.00 | 47 | 1011.4 |
| 20260503211309 | 16 | 22 | 4.8 | 6.4 | 0.00 | 0.00 | 0.00 | 46 | 1011.0 |
| 20260503210314 | 16 | 45 | 6.4 | 9.7 | 0.00 | 0.00 | 0.00 | 48 | 1011.5 |
| 20260503205314 | 15 | 45 | 4.8 | 8.0 | 0.00 | 0.00 | 0.00 | 48 | 1011.1 |
| 20260503203314 | 16 | 22 | 4.8 | 9.7 | 0.00 | 0.00 | 0.00 | 45 | 1011.2 |
| 20260503202313 | 15 | 22 | 6.4 | 11.3 | 0.00 | 0.00 | 0.00 | 46 | 1011.2 |
| 20260503201313 | 15 | 22 | 6.4 | 12.9 | 0.00 | 0.00 | 0.00 | 47 | 1011.3 |
| 20260503194313 | 16 | 22 | 4.8 | 16.1 | 0.00 | 0.00 | 0.00 | 43 | 1011.3 |
| 20260503193313 | 16 | 45 | 6.4 | 11.3 | 0.00 | 0.00 | 0.00 | 43 | 1011.5 |
| 20260503192313 | 16 | 22 | 6.4 | 9.7 | 0.00 | 0.00 | 0.00 | 42 | 1011.5 |
| 20260503190312 | 16 | 22 | 9.7 | 14.5 | 0.00 | 0.00 | 0.00 | 38 | 1011.2 |
| 20260503185312 | 15 | 22 | 8.0 | 12.9 | 0.00 | 0.00 | 0.00 | 35 | 1010.9 |
| 20260503184312 | 15 | 22 | 6.4 | 11.3 | 0.00 | 0.00 | 0.00 | 35 | 1010.9 |
| 20260503183312 | 16 | 45 | 6.4 | 11.3 | 0.00 | 0.00 | 0.00 | 34 | 1010.7 |
| 20260503181312 | 16 | 22 | 6.4 | 9.7 | 0.00 | 0.00 | 0.00 | 37 | 1010.4 |
| 20260503180311 | 17 | 22 | 4.8 | 8.0 | 0.00 | 0.00 | 0.00 | 35 | 1010.1 |
| 20260503175312 | 16 | 22 | 6.4 | 8.0 | 0.00 | 0.00 | 0.00 | 36 | 1009.9 |
| 20260503174311 | 17 | 22 | 6.4 | 6.4 | 0.00 | 0.00 | 0.00 | 39 | 1010.1 |
| 20260503173311 | 17 | 22 | 4.8 | 6.4 | 0.00 | 0.00 | 0.00 | 39 | 1009.9 |
| 20260503172311 | 17 | 22 | 1.6 | 4.8 | 0.00 | 0.00 | 0.00 | 39 | 1010.0 |
| 20260503171311 | 18 | 360 | 4.8 | 6.4 | 0.00 | 0.00 | 0.00 | 34 | 1009.9 |
| 20260503170311 | 19 | 360 | 4.8 | 6.4 | 0.00 | 0.00 | 0.00 | 34 | 1009.9 |
| 20260503150309 | 23 | 180 | 3.2 | 17.7 | 0.00 | 0.00 | 0.00 | 21 | 1011.5 |
| 20260503131313 | 23 | 202 | 8.0 | 14.5 | 0.00 | 0.00 | 0.00 | 26 | 1012.9 |
| 20260503130312 | 23 | 180 | 0.0 | 9.7 | 0.00 | 0.00 | 0.00 | 28 | 1012.9 |
| 20260503110311 | 22 | 202 | 4.8 | 12.9 | 0.00 | 0.00 | 0.00 | 27 | 1013.8 |
| 20260503090313 | 20 | 202 | 6.4 | 12.9 | 0.00 | 0.00 | 0.00 | 35 | 1014.9 |
| 20260503081313 | 19 | 270 | 0.0 | 6.4 | 0.00 | 0.00 | 0.00 | 41 | 1015.0 |
| 20260503080313 | 18 | 180 | 0.0 | 8.0 | 0.00 | 0.00 | 0.00 | 41 | 1014.8 |
| 20260503072312 | 18 | 202 | 1.6 | 6.4 | 0.00 | 0.00 | 0.00 | 43 | 1014.8 |
| 20260503060311 | 11 | 45 | 6.4 | 9.7 | 0.00 | 0.00 | 0.00 | 60 | 1014.1 |
| 20260503054311 | 10 | 45 | 8.0 | 9.7 | 0.00 | 0.00 | 0.00 | 58 | 1014.3 |
| 20260503053311 | 9 | 45 | 8.0 | 11.3 | 0.00 | 0.00 | 0.00 | 59 | 1014.3 |
| 20260503052311 | 8 | 45 | 9.7 | 11.3 | 0.00 | 0.00 | 0.00 | 60 | 1014.2 |
| 20260503051311 | 8 | 45 | 9.7 | 11.3 | 0.00 | 0.00 | 0.00 | 61 | 1014.4 |
| 20260503050310 | 7 | 45 | 9.7 | 12.9 | 0.00 | 0.00 | 0.00 | 61 | 1014.4 |
| 20260503045310 | 7 | 45 | 9.7 | 11.3 | 0.00 | 0.00 | 0.00 | 61 | 1014.4 |
| 20260503044310 | 7 | 45 | 9.7 | 11.3 | 0.00 | 0.00 | 0.00 | 59 | 1014.4 |
| 20260503043310 | 8 | 45 | 8.0 | 11.3 | 0.00 | 0.00 | 0.00 | 58 | 1014.6 |
| 20260503042310 | 7 | 45 | 11.3 | 14.5 | 0.00 | 0.00 | 0.00 | 58 | 1014.4 |
| 20260503041310 | 8 | 45 | 9.7 | 12.9 | 0.00 | 0.00 | 0.00 | 56 | 1014.6 |
| 20260503040309 | 8 | 45 | 11.3 | 14.5 | 0.00 | 0.00 | 0.00 | 57 | 1014.6 |
| 20260503035309 | 8 | 45 | 11.3 | 12.9 | 0.00 | 0.00 | 0.00 | 54 | 1014.6 |
| 20260503034309 | 8 | 45 | 11.3 | 12.9 | 0.00 | 0.00 | 0.00 | 56 | 1014.6 |
| 20260503033309 | 9 | 45 | 11.3 | 12.9 | 0.00 | 0.00 | 0.00 | 52 | 1014.8 |
| 20260503032309 | 9 | 45 | 9.7 | 12.9 | 0.00 | 0.00 | 0.00 | 51 | 1014.7 |
| 20260503031314 | 10 | 45 | 11.3 | 14.5 | 0.00 | 0.00 | 0.00 | 50 | 1014.9 |
| 20260503025314 | 9 | 45 | 11.3 | 14.5 | 0.00 | 0.00 | 0.00 | 52 | 1014.9 |
| 20260503023313 | 9 | 45 | 8.0 | 12.9 | 0.00 | 0.00 | 0.00 | 52 | 1015.1 |
| 20260503022313 | 10 | 22 | 11.3 | 16.1 | 0.00 | 0.00 | 0.00 | 49 | 1015.2 |
| 20260503021313 | 10 | 22 | 11.3 | 14.5 | 0.00 | 0.00 | 0.00 | 49 | 1015.2 |
| 20260503020313 | 10 | 22 | 11.3 | 14.5 | 0.00 | 0.00 | 0.00 | 50 | 1015.3 |
| 20260503015313 | 10 | 22 | 12.9 | 14.5 | 0.00 | 0.00 | 0.00 | 48 | 1015.5 |
| 20260503014313 | 10 | 22 | 9.7 | 16.1 | 0.00 | 0.00 | 0.00 | 48 | 1015.6 |
| 20260503013313 | 10 | 45 | 11.3 | 14.5 | 0.00 | 0.00 | 0.00 | 48 | 1015.7 |
| 20260503012313 | 9 | 45 | 11.3 | 14.5 | 0.00 | 0.00 | 0.00 | 49 | 1015.7 |
| 20260503011312 | 10 | 22 | 11.3 | 14.5 | 0.00 | 0.00 | 0.00 | 50 | 1015.8 |
| 20260503010312 | 10 | 45 | 11.3 | 14.5 | 0.00 | 0.00 | 0.00 | 50 | 1015.8 |
| 20260503005312 | 9 | 22 | 8.0 | 12.9 | 0.00 | 0.00 | 0.00 | 50 | 1015.6 |
| 20260503004312 | 8 | 45 | 8.0 | 11.3 | 0.00 | 0.00 | 0.00 | 54 | 1015.5 |
| 20260503003312 | 8 | 22 | 9.7 | 12.9 | 0.00 | 0.00 | 0.00 | 55 | 1015.7 |
| 20260503002311 | 8 | 45 | 9.7 | 12.9 | 0.00 | 0.00 | 0.00 | 58 | 1016.0 |
| 20260503001311 | 8 | 45 | 9.7 | 12.9 | 0.00 | 0.00 | 0.00 | 56 | 1016.0 |